CW1839 Catania IT current weather conditions

sailwx.info

Wind from 349

Air temperature 22.8° C
Dewpoint 17.5° C

Last reported at 2019-Jul-19 06:01 UTC.
Time now 2019-Jul-19 06:29 UTC

Location: N 37°33' E 015°05'.
View on Google Maps.

See reports from other nearby stations

  
Tides and Currents Weather Stations Pressure Air Temp Water Temp Dewpoint Dewpoint Depression Visibility Wind Speed Wind Dir Waves Ship Positions
date/time (UTC)wind fromknots sea level pressurealtimeterstation pressurevisibilityair tempwater tempwave heightnotes
2019-Jul-19 06:01 349 22.8
2019-Jul-19 05:47 349 22.2
2019-Jul-19 05:17 349 21.1
2019-Jul-19 04:47 349 20.6
2019-Jul-19 04:31 349 20.0
2019-Jul-19 04:16 350 20.0
2019-Jul-19 04:01 359 20.0
2019-Jul-19 03:45 20.0
2019-Jul-19 03:30 356 20.6
2019-Jul-19 03:01 339 20.0
2019-Jul-19 02:48 20.0
2019-Jul-19 02:31 357 20.6
2019-Jul-19 02:17 357 20.6
2019-Jul-19 02:01 359 20.6
2019-Jul-19 01:48 359 20.6
2019-Jul-19 01:31 20.6
2019-Jul-19 01:16 010 20.6
2019-Jul-19 01:01 011 20.6
2019-Jul-19 00:46 030 21.1
2019-Jul-19 00:31 030 21.1
2019-Jul-19 00:17 066 21.7
2019-Jul-19 00:01 066 21.7
2019-Jul-18 23:47 066 22.2
2019-Jul-18 23:31 066 22.2
2019-Jul-18 23:17 066 22.2
2019-Jul-18 23:02 066 22.2
2019-Jul-18 22:46 066 22.2
2019-Jul-18 22:31 069 22.8
2019-Jul-18 22:16 069 22.8
2019-Jul-18 21:46 069 22.8
2019-Jul-18 21:31 069 23.3
2019-Jul-18 21:01 069 23.3
2019-Jul-18 20:47 069 23.3
2019-Jul-18 20:31 079 23.3
2019-Jul-18 19:47 079 23.9
2019-Jul-18 19:31 089 23.9
2019-Jul-18 19:16 078 23.9
2019-Jul-18 19:02 078 23.9
2019-Jul-18 18:46 080 23.9
2019-Jul-18 18:31 080 23.9
2019-Jul-18 18:16 080 23.9
2019-Jul-18 18:01 080 24.4
2019-Jul-18 17:31 071 24.4
2019-Jul-18 17:17 054 25.0
2019-Jul-18 17:02 069 25.6
2019-Jul-18 16:46 160 25.6
2019-Jul-18 16:32 112 26.1
2019-Jul-18 16:16 071 26.7
2019-Jul-18 16:01 141 0 27.2
2019-Jul-18 15:46 078 2 26.7
2019-Jul-18 15:33 085 3 26.1
2019-Jul-18 15:16 080 2 26.1
2019-Jul-18 14:46 085 4 27.8
2019-Jul-18 14:20 080 2 28.3
2019-Jul-18 14:01 090 3 28.3
2019-Jul-18 13:46 078 1 28.9
2019-Jul-18 13:31 088 1 28.3
2019-Jul-18 13:01 075 1 28.9
2019-Jul-18 12:47 165 1 28.9
2019-Jul-18 12:32 038 3 28.3
2019-Jul-18 12:16 092 2 28.3
2019-Jul-18 12:01 082 0 27.8
2019-Jul-18 11:47 080 0 27.8
2019-Jul-18 11:31 095 2 27.8
2019-Jul-18 11:16 093 3 27.2
2019-Jul-18 11:02 073 1 27.2
2019-Jul-18 10:46 065 1 27.2
2019-Jul-18 10:31 130 0 27.2
2019-Jul-18 10:17 136 1 26.7
2019-Jul-18 10:01 126 27.2
2019-Jul-18 09:48 099 0 26.7
2019-Jul-18 09:16 109 26.7
2019-Jul-18 09:02 106 26.7
2019-Jul-18 08:46 130 26.7
2019-Jul-18 08:31 144 26.1
2019-Jul-18 08:16 168 25.6
2019-Jul-18 08:02 107 25.6
2019-Jul-18 07:46 079 25.6
2019-Jul-18 07:17 131 24.4
2019-Jul-18 07:02 150 23.9
2019-Jul-18 06:46 140 23.9
2019-Jul-18 06:31 241 23.3
2019-Jul-18 06:17 326 23.3
2019-Jul-18 06:01 326 22.8
2019-Jul-18 05:46 325 22.2
2019-Jul-18 05:31 325 21.7
2019-Jul-18 05:17 325 21.1
2019-Jul-18 05:01 325 20.6
2019-Jul-18 04:31 016 20.0
2019-Jul-18 04:02 016 20.0
2019-Jul-18 03:46 017 20.0
2019-Jul-18 03:31 017 20.0
2019-Jul-18 03:16 017 20.0
2019-Jul-18 03:01 017 20.0
2019-Jul-18 02:46 017 20.0
2019-Jul-18 02:32 017 20.6
2019-Jul-18 02:16 017 20.6
2019-Jul-18 02:01 017 20.6
2019-Jul-18 01:47 017 20.6
2019-Jul-18 01:31 017 20.6
2019-Jul-18 01:16 017 21.1
2019-Jul-18 00:46 017 21.1
2019-Jul-18 00:31 017 21.1
2019-Jul-18 00:16 023 21.1
2019-Jul-18 00:01 023 21.7
2019-Jul-17 23:46 023 21.7
2019-Jul-17 23:32 023 21.7
2019-Jul-17 23:16 023 21.7
2019-Jul-17 23:01 024 21.7
2019-Jul-17 22:46 024 21.7
2019-Jul-17 22:31 061 22.2
2019-Jul-17 22:02 061 22.2
2019-Jul-17 21:46 061 22.8
2019-Jul-17 21:31 055 0 22.8
2019-Jul-17 21:16 22.8
2019-Jul-17 21:01 014 0 22.8
2019-Jul-17 20:47 035 0 22.8
2019-Jul-17 20:32 072 0 22.8
2019-Jul-17 20:02 073 22.8
2019-Jul-17 19:46 073 22.8
2019-Jul-17 19:01 076 23.9
2019-Jul-17 18:46 088 23.9
2019-Jul-17 18:16 160 24.4
2019-Jul-17 18:01 141 25.0
2019-Jul-17 17:47 110 25.0
2019-Jul-17 17:01 102 26.1
2019-Jul-17 16:32 152 27.2
2019-Jul-17 16:16 092 26.7
2019-Jul-17 15:32 069 4 27.8
2019-Jul-17 14:46 059 4 28.3
2019-Jul-17 14:31 112 4 28.3
2019-Jul-17 14:16 075 4 27.8
2019-Jul-17 13:46 079 4 27.8
2019-Jul-17 13:31 052 5 27.8
2019-Jul-17 13:17 093 3 28.3
2019-Jul-17 12:46 066 2 28.3
2019-Jul-17 12:31 073 2 27.8
2019-Jul-17 12:17 055 28.3
2019-Jul-17 11:31 093 0 27.8
2019-Jul-17 11:01 089 1 27.2
2019-Jul-17 10:30 121 27.2
2019-Jul-17 10:16 089 0 27.2
2019-Jul-17 09:46 124 27.2
2019-Jul-17 09:31 138 0 27.2
2019-Jul-17 09:17 102 26.7
2019-Jul-17 09:01 230 26.1
2019-Jul-17 08:46 165 26.1
2019-Jul-17 08:16 192 0 25.6
2019-Jul-17 08:01 186 25.6
2019-Jul-17 07:46 186 25.6
2019-Jul-17 07:32 189 24.4
2019-Jul-17 07:16 191 23.9
2019-Jul-17 07:02 203 23.3
2019-Jul-17 06:46 203 22.8
2019-Jul-17 06:31 202 22.8
2019-Jul-17 06:16 193 22.2
2019-Jul-17 06:01 193 21.7